M I D A S
Marine Information and Data Acquisition System
Tripno 272 of the Zeeleeuw from 2002-05-02 06:36:12 to 2002-05-02 16:54:28
Back to CruiseResearch ActivitiesStationsMapUnderway DataData graphs

EquipmentUnitsComment
TimeDGPSUTC
LatitudeDGPSDM.mWGS84
LongitudeDGPSDM.mWGS84
TemperatureSBE03/SBE38deg celciusITS90
ConductivitySBE21S/mITS90
SalinitySBE21 Practical Salinity Units
ChlorophylAChelsea fluorimeterg/lCalibrated in Aceton
Missing or incorrect values are displayed as -999
Sea surface data collected by the RV Zeeleeuw from 2002-05-02 06:36:12 to 2002-05-02 16:54:28
                                                                                    Next 1000 lines
Time Latitude Longitude Temperature Conductivity Salinity ChlorophylA
2002-05-02 06:36:21 51°13.686 2°55.902 16.423428 0.081654 0.416254  
2002-05-02 06:36:25 51°13.686 2°55.901 16.432119 0.081654 0.416266  
2002-05-02 06:36:30 51°13.686 2°55.899 16.438892 0.081654 0.416266  
2002-05-02 06:36:35 51°13.687 2°55.895 16.426794 0.081654 0.416266  
2002-05-02 06:36:40 51°13.687 2°55.89 16.426325 0.081654 0.416272  
2002-05-02 06:36:47 51°13.688 2°55.883 16.426325 0.081654 0.416272  
2002-05-02 06:36:51 51°13.688 2°55.878 16.426709 0.081654 0.416272  
2002-05-02 06:36:57 51°13.689 2°55.871 16.425814 0.081654 0.416266  
2002-05-02 06:37:01 51°13.69 2°55.866 16.425303 0.081654 0.416272  
2002-05-02 06:37:07 51°13.69 2°55.858 16.424408 0.081654 0.416272  
2002-05-02 06:37:11 51°13.691 2°55.853 16.423002 0.081654 0.416272  
2002-05-02 06:37:16 51°13.691 2°55.845 16.423002 0.081654 0.416272  
2002-05-02 06:37:21 51°13.692 2°55.838 16.422533 0.081654 0.416284  
2002-05-02 06:37:27 51°13.692 2°55.829 16.421724 0.081654 0.416278  
2002-05-02 06:37:31 51°13.693 2°55.823 16.422022 0.081654 0.41629  
2002-05-02 06:37:36 51°13.693 2°55.815 16.422107 0.081654 0.416296  
2002-05-02 06:37:41 51°13.694 2°55.807 16.421894 0.081654 0.416296  
2002-05-02 06:37:47 51°13.694 2°55.797 16.421894 0.081654 0.416296  
2002-05-02 06:37:51 51°13.694 2°55.791 16.419338 0.081654 0.416296  
2002-05-02 06:37:56 51°13.694 2°55.783 16.419423 0.081654 0.416302  
2002-05-02 06:38:01 51°13.695 2°55.776 16.419594 0.081654 0.416302  
2002-05-02 06:38:06 51°13.695 2°55.768 16.419807 0.081654 0.416302  
2002-05-02 06:38:11 51°13.695 2°55.761 16.419807 0.081654 0.416302  
2002-05-02 06:38:16 51°13.695 2°55.755 16.419807 0.081654 0.416302  
2002-05-02 06:38:20 51°13.695 2°55.749 16.419636 0.081654 0.416308  
2002-05-02 06:38:25 51°13.695 2°55.743 16.419721 0.081654 0.416302  
2002-05-02 06:38:30 51°13.695 2°55.737 16.419636 0.081654 0.416321  
2002-05-02 06:38:36 51°13.695 2°55.729 16.419594 0.081654 0.416321  
2002-05-02 06:38:40 51°13.696 2°55.725 16.419636 0.081654 0.416321  
2002-05-02 06:38:46 51°13.696 2°55.719 16.419636 0.081654 0.416321  
2002-05-02 06:38:50 51°13.696 2°55.716 16.418188 0.081654 0.416321  
2002-05-02 06:38:56 51°13.697 2°55.716 16.400248 0.081654 0.416321  
2002-05-02 06:39:01 51°13.698 2°55.719 16.373137 0.081654 0.416333  
2002-05-02 06:39:06 51°13.699 2°55.724 16.354801 0.081654 0.416333  
2002-05-02 06:39:11 51°13.7 2°55.728 16.368148 0.081654 0.416345  
2002-05-02 06:39:16 51°13.703 2°55.732 16.368148 0.081654 0.416345  
2002-05-02 06:39:20 51°13.704 2°55.735 16.390913 0.081654 0.416351  
2002-05-02 06:39:26 51°13.707 2°55.739 16.401015 0.081654 0.416357  
2002-05-02 06:39:30 51°13.709 2°55.741 16.411413 0.081654 0.416357  
2002-05-02 06:39:35 51°13.71 2°55.743 16.429605 0.081654 0.416351  
2002-05-02 06:39:40 51°13.711 2°55.744 16.417293 0.081654 0.416351  
2002-05-02 06:39:45 51°13.711 2°55.744 16.417293 0.081654 0.416351  
2002-05-02 06:39:50 51°13.71 2°55.743 16.41823 0.081654 0.416345  
2002-05-02 06:39:55 51°13.709 2°55.742 16.414822 0.081654 0.416351  
2002-05-02 06:40:00 51°13.707 2°55.74 16.404935 0.081654 0.416351  
2002-05-02 06:40:06 51°13.704 2°55.738 16.408643 0.081654 0.416351  
2002-05-02 06:40:11 51°13.702 2°55.736 16.410049 0.081654 0.416357  
2002-05-02 06:40:16 51°13.7 2°55.734 16.410049 0.081654 0.416357  
2002-05-02 06:40:21 51°13.698 2°55.732 16.410305 0.081654 0.416369  
2002-05-02 06:40:27 51°13.695 2°55.73 16.411626 0.081654 0.416375  
2002-05-02 06:40:31 51°13.694 2°55.729 16.412478 0.081654 0.416381  
2002-05-02 06:40:36 51°13.692 2°55.727 16.412435 0.081654 0.416381  
2002-05-02 06:40:41 51°13.69 2°55.725 16.412521 0.081654 0.416375  
2002-05-02 06:40:46 51°13.688 2°55.724 16.412521 0.081654 0.416375  
2002-05-02 06:40:51 51°13.686 2°55.722 16.412393 0.081654 0.416381  
2002-05-02 06:40:56 51°13.684 2°55.721 16.412435 0.081654 0.416375  
2002-05-02 06:41:01 51°13.683 2°55.719 16.412606 0.081654 0.416375  
2002-05-02 06:41:05 51°13.682 2°55.719 16.412308 0.081654 0.416381  
2002-05-02 06:41:10 51°13.682 2°55.718 16.410944 0.081654 0.416387  
2002-05-02 06:41:16 51°13.681 2°55.718 16.410944 0.081654 0.416387  
2002-05-02 06:41:20 51°13.681 2°55.717 16.411839 0.081654 0.4164  
2002-05-02 06:41:26 51°13.68 2°55.717 16.413501 0.081654 0.4164  
2002-05-02 06:41:31 51°13.68 2°55.717 16.416228 0.081654 0.416406  
2002-05-02 06:41:36 51°13.68 2°55.716 16.417037 0.081654 0.416412  
2002-05-02 06:41:41 51°13.68 2°55.716 16.417719 0.081654 0.416424  
2002-05-02 06:41:45 51°13.68 2°55.716 16.417719 0.081654 0.416424  
2002-05-02 06:41:50 51°13.68 2°55.716 16.418486 0.081654 0.416424  
2002-05-02 06:41:56 51°13.68 2°55.716 16.419338 0.081654 0.41643  
2002-05-02 06:42:00 51°13.68 2°55.716 16.420488 0.081654 0.416436  
2002-05-02 06:42:06 51°13.681 2°55.716 16.420531 0.081654 0.416442  
2002-05-02 06:42:11 51°13.681 2°55.716 16.42019 0.081654 0.416454  
2002-05-02 06:42:16 51°13.682 2°55.716 16.42019 0.081654 0.416454  
2002-05-02 06:42:20 51°13.682 2°55.716 16.420105 0.081654 0.416461  
2002-05-02 06:42:25 51°13.683 2°55.716 16.419721 0.081654 0.416467  
2002-05-02 06:42:30 51°13.683 2°55.716 -999 0.081654 0.416467  
2002-05-02 06:42:36 51°13.684 2°55.716 -999 0.081654 0.416479  
2002-05-02 06:42:40 51°13.685 2°55.715 -999 0.081654 0.416479  
2002-05-02 06:42:46 51°13.686 2°55.715 -999 0.081654 0.416479  
2002-05-02 06:42:50 51°13.686 2°55.715 49.437969 0.081654 0.416473  
2002-05-02 06:42:56 51°13.687 2°55.714 -999 0.081654 0.416473  
2002-05-02 06:43:00 51°13.688 2°55.714 47.257705 0.081654 0.416467  
2002-05-02 06:43:06 51°13.689 2°55.713 -999 0.081555 0.415946  
2002-05-02 06:43:10 51°13.69 2°55.713 -999 0.081654 0.416473  
2002-05-02 06:43:16 51°13.691 2°55.712 -999 0.081654 0.416473  
2002-05-02 06:43:20 51°13.692 2°55.712 47.280867 0.081654 0.416473  
2002-05-02 06:43:26 51°13.693 2°55.711 47.281038 0.081654 0.416479  
2002-05-02 06:43:31 51°13.694 2°55.711 48.562585 0.081654 0.416491  
2002-05-02 06:43:35 51°13.695 2°55.71 49.698103 0.081654 0.416491  
2002-05-02 06:43:40 51°13.697 2°55.71 49.539523 0.081555 0.415977  
2002-05-02 06:43:46 51°13.699 2°55.708 49.539523 0.081555 0.415977  
2002-05-02 06:43:50 51°13.7 2°55.708 48.002766 0.081654 0.416509  
2002-05-02 06:43:56 51°13.702 2°55.706 49.311869 0.081654 0.416509  
2002-05-02 06:44:00 51°13.704 2°55.705 47.096967 0.081654 0.416503  
2002-05-02 06:44:06 51°13.706 2°55.704 -999 0.081654 0.416509  
2002-05-02 06:44:11 51°13.708 2°55.702 49.698352 0.081654 0.416522  
2002-05-02 06:44:16 51°13.71 2°55.701 49.698352 0.081654 0.416522  
2002-05-02 06:44:20 51°13.713 2°55.7 48.992035 0.081654 0.416522  
2002-05-02 06:44:26 51°13.716 2°55.697 46.705933 0.081654 0.416528  
2002-05-02 06:44:31 51°13.719 2°55.695 49.318491 0.081654 0.416534  
2002-05-02 06:44:36 51°13.723 2°55.692 48.015816 0.081654 0.41654  
2002-05-02 06:44:40 51°13.726 2°55.69 48.140338 0.081555 0.416025  
2002-05-02 06:44:45 51°13.73 2°55.687 48.140338 0.081555 0.416025  
2002-05-02 06:44:51 51°13.736 2°55.683 46.599676 0.081555 0.416032  
2002-05-02 06:44:56 51°13.74 2°55.68 -999 0.081555 0.416038  
2002-05-02 06:45:00 51°13.745 2°55.678 49.219549 0.081555 0.416032  
2002-05-02 06:45:05 51°13.75 2°55.674 47.353048 0.081654 0.416564  
2002-05-02 06:45:11 51°13.756 2°55.671 47.450701 0.081555 0.416044  
2002-05-02 06:45:16 51°13.762 2°55.667 47.450701 0.081555 0.416044  
2002-05-02 06:45:20 51°13.767 2°55.665 46.351154 0.081555 0.416056  
2002-05-02 06:45:25 51°13.773 2°55.661 47.758242 0.081654 0.416576  
2002-05-02 06:45:31 51°13.78 2°55.657 48.436532 0.081555 0.416068  
2002-05-02 06:45:36 51°13.787 2°55.654 45.361416 0.081654 0.416589  
2002-05-02 06:45:41 51°13.793 2°55.65 47.680843 0.081555 0.416068  
2002-05-02 06:45:45 51°13.799 2°55.647 47.680843 0.081555 0.416068  
2002-05-02 06:45:50 51°13.805 2°55.643 47.629337 0.081654 0.416595  
2002-05-02 06:45:56 51°13.813 2°55.638 48.531314 0.081555 0.416086  
2002-05-02 06:46:00 51°13.819 2°55.635 46.47759 0.081555 0.416092  
2002-05-02 06:46:06 51°13.827 2°55.629 48.295206 0.081555 0.416099  
2002-05-02 06:46:10 51°13.833 2°55.625 44.400406 0.081555 0.416105  
2002-05-02 06:46:16 51°13.841 2°55.62 44.400406 0.081555 0.416105  
2002-05-02 06:46:20 51°13.847 2°55.616 46.291986 0.081555 0.416105  
2002-05-02 06:46:25 51°13.854 2°55.611 47.625394 0.081555 0.416105  
2002-05-02 06:46:30 51°13.861 2°55.605 45.456073 0.081555 0.416117  
2002-05-02 06:46:36 51°13.869 2°55.599 46.358381 0.081555 0.416123  
2002-05-02 06:46:40 51°13.875 2°55.595 47.554662 0.081555 0.416129  
2002-05-02 06:46:45 51°13.882 2°55.589 47.554662 0.081555 0.416129  
2002-05-02 06:46:51 51°13.891 2°55.583 44.865706 0.081555 0.416129  
2002-05-02 06:46:56 51°13.898 2°55.577 47.933954 0.081555 0.416141  
2002-05-02 06:47:00 51°13.904 2°55.573 47.775917 0.081555 0.416141  
2002-05-02 06:47:05 51°13.911 2°55.568 47.801319 0.081555 0.416147  
2002-05-02 06:47:10 51°13.919 2°55.563 45.490113 0.081555 0.416153  
2002-05-02 06:47:15 51°13.926 2°55.558 45.490113 0.081555 0.416153  
2002-05-02 06:47:20 51°13.934 2°55.553 44.830505 0.081555 0.416159  
2002-05-02 06:47:26 51°13.943 2°55.548 44.91703 0.081555 0.416159  
2002-05-02 06:47:30 51°13.949 2°55.544 46.847394 0.081555 0.416166  
2002-05-02 06:47:36 51°13.958 2°55.539 44.661478 0.081555 0.416178  
2002-05-02 06:47:40 51°13.965 2°55.535 45.831854 0.081555 0.416184  
2002-05-02 06:47:45 51°13.972 2°55.53 45.831854 0.081555 0.416184  
2002-05-02 06:47:50 51°13.98 2°55.526 44.996943 0.081555 0.41619  
2002-05-02 06:47:56 51°13.989 2°55.52 44.636535 0.081555 0.416202  
2002-05-02 06:48:00 51°13.995 2°55.517 45.842023 0.081555 0.416202  
2002-05-02 06:48:05 51°14.003 2°55.512 44.971396 0.081555 0.416208  
2002-05-02 06:48:10 51°14.01 2°55.507 43.448041 0.081555 0.41622  
2002-05-02 06:48:16 51°14.019 2°55.501 43.448041 0.081555 0.41622  
2002-05-02 06:48:20 51°14.026 2°55.497 45.948502 0.081555 0.416226  
2002-05-02 06:48:26 51°14.035 2°55.491 45.041403 0.081555 0.416233  
2002-05-02 06:48:30 51°14.041 2°55.487 46.372345 0.081555 0.416245  
2002-05-02 06:48:36 51°14.05 2°55.48 47.842053 0.081555 0.416245  
2002-05-02 06:48:40 51°14.056 2°55.476 45.090458 0.081555 0.416251  
2002-05-02 06:48:46 51°14.066 2°55.47 45.090458 0.081555 0.416251  
2002-05-02 06:48:51 51°14.073 2°55.465 45.330442 0.081555 0.416257  
2002-05-02 06:48:56 51°14.081 2°55.461 45.777196 0.081555 0.416269  
2002-05-02 06:49:00 51°14.087 2°55.457 45.865571 0.081555 0.416269  
2002-05-02 06:49:06 51°14.096 2°55.451 45.85639 0.081555 0.416281  
2002-05-02 06:49:10 51°14.102 2°55.447 45.045936 0.081555 0.416294  
2002-05-02 06:49:16 51°14.112 2°55.441 45.045936 0.081555 0.416294  
2002-05-02 06:49:20 51°14.118 2°55.437 45.995879 0.081555 0.416306  
2002-05-02 06:49:26 51°14.127 2°55.431 46.423228 0.081555 0.416306  
2002-05-02 06:49:31 51°14.135 2°55.426 46.740023 0.081555 0.416312  
2002-05-02 06:49:36 51°14.142 2°55.421 45.12447 0.081555 0.416318  
2002-05-02 06:49:41 51°14.15 2°55.416 42.412419 0.081555 0.416336  
2002-05-02 06:49:45 51°14.156 2°55.412 42.412419 0.081555 0.416336  
2002-05-02 06:49:50 51°14.163 2°55.406 43.772754 0.081555 0.416342  
2002-05-02 06:49:56 51°14.172 2°55.399 45.147517 0.081555 0.416342  
2002-05-02 06:50:00 51°14.178 2°55.394 43.884864 0.081555 0.416361  
2002-05-02 06:50:06 51°14.186 2°55.386 43.760819 0.081555 0.416361  
2002-05-02 06:50:11 51°14.193 2°55.379 -999 0.081555 0.416373  
2002-05-02 06:50:16 51°14.2 2°55.372 -999 0.081555 0.416373  
2002-05-02 06:50:20 51°14.205 2°55.367 49.888247 0.081555 0.416379  
2002-05-02 06:50:26 51°14.214 2°55.358 -999 0.081555 0.416391  
2002-05-02 06:50:30 51°14.219 2°55.352 47.663432 0.081555 0.416397  
2002-05-02 06:50:36 51°14.227 2°55.342 42.175577 0.081555 0.416403  
2002-05-02 06:50:40 51°14.232 2°55.335 42.419419 0.081555 0.416416  
2002-05-02 06:50:45 51°14.238 2°55.327 42.419419 0.081555 0.416416  
2002-05-02 06:50:51 51°14.245 2°55.316 43.035885 0.081555 0.416422  
2002-05-02 06:50:56 51°14.251 2°55.307 41.27395 0.081555 0.416434  
2002-05-02 06:51:00 51°14.256 2°55.299 42.961069 0.081555 0.41644  
2002-05-02 06:51:05 51°14.261 2°55.29 42.756023 0.081555 0.416446  
2002-05-02 06:51:10 51°14.267 2°55.28 42.32224 0.081555 0.416458  
2002-05-02 06:51:15 51°14.272 2°55.269 42.32224 0.081555 0.416458  
2002-05-02 06:51:20 51°14.277 2°55.259 42.793186 0.081555 0.416458  
2002-05-02 06:51:26 51°14.284 2°55.247 41.829131 0.081555 0.416477  
2002-05-02 06:51:30 51°14.288 2°55.238 43.70011 0.081555 0.416477  
2002-05-02 06:51:36 51°14.294 2°55.225 41.780771 0.081555 0.416489  
2002-05-02 06:51:40 51°14.298 2°55.217 42.401797 0.081555 0.416489  
2002-05-02 06:51:46 51°14.304 2°55.204 42.401797 0.081555 0.416489  
2002-05-02 06:51:51 51°14.309 2°55.193 42.302694 0.081456 0.415986  
2002-05-02 06:51:56 51°14.313 2°55.181 40.779443 0.081555 0.416519  
2002-05-02 06:52:01 51°14.318 2°55.17 41.976256 0.081555 0.416525  
2002-05-02 06:52:06 51°14.322 2°55.159 40.34768 0.081456 0.41601  
2002-05-02 06:52:10 51°14.326 2°55.149 42.055418 0.081456 0.416016  
2002-05-02 06:52:15 51°14.331 2°55.138 42.055418 0.081456 0.416016  
2002-05-02 06:52:20 51°14.336 2°55.127 42.20432 0.081456 0.416029  
2002-05-02 06:52:25 51°14.34 2°55.115 40.574522 0.081456 0.416035  
2002-05-02 06:52:31 51°14.346 2°55.101 39.84025 0.081456 0.416047  
2002-05-02 06:52:36 51°14.35 2°55.089 40.116205 0.081456 0.416059  
2002-05-02 06:52:40 51°14.354 2°55.079 40.713493 0.081456 0.416065  
2002-05-02 06:52:45 51°14.359 2°55.065 40.713493 0.081456 0.416065  
2002-05-02 06:52:51 51°14.365 2°55.047 42.178876 0.081456 0.416077  
2002-05-02 06:52:55 51°14.37 2°55.034 41.8634 0.081456 0.416084  
2002-05-02 06:53:00 51°14.376 2°55.017 38.890423 0.081456 0.416084  
2002-05-02 06:53:06 51°14.384 2°54.994 39.701219 0.081456 0.416096  
2002-05-02 06:53:11 51°14.39 2°54.974 40.262956 0.081456 0.416102  
2002-05-02 06:53:15 51°14.396 2°54.957 40.262956 0.081456 0.416102  
2002-05-02 06:53:20 51°14.403 2°54.936 39.167889 0.081456 0.416114  
2002-05-02 06:53:25 51°14.41 2°54.914 40.300051 0.081456 0.41612  
2002-05-02 06:53:31 51°14.419 2°54.887 40.873628 0.081456 0.416126  
2002-05-02 06:53:36 51°14.427 2°54.864 40.632384 0.081456 0.416151  
2002-05-02 06:53:40 51°14.434 2°54.845 36.090752 0.081456 0.416151  
2002-05-02 06:53:45 51°14.442 2°54.822 36.090752 0.081456 0.416151  
2002-05-02 06:53:50 51°14.45 2°54.799 40.359375 0.081456 0.416169  
2002-05-02 06:53:56 51°14.461 2°54.771 38.974889 0.081456 0.416169  
2002-05-02 06:54:01 51°14.469 2°54.748 38.353105 0.081456 0.416187  
2002-05-02 06:54:06 51°14.478 2°54.725 39.686062 0.081456 0.4162  
2002-05-02 06:54:10 51°14.485 2°54.706 40.405733 0.081456 0.416206  
2002-05-02 06:54:15 51°14.494 2°54.683 40.405733 0.081456 0.416206  
2002-05-02 06:54:21 51°14.504 2°54.656 39.659171 0.081456 0.416218  
2002-05-02 06:54:26 51°14.513 2°54.632 41.300898 0.081456 0.416224  
2002-05-02 06:54:30 51°14.52 2°54.614 40.671346 0.081456 0.416236  
2002-05-02 06:54:36 51°14.53 2°54.586 38.651944 0.081456 0.416254  
2002-05-02 06:54:40 51°14.537 2°54.567 39.275581 0.055997 0.28109  
2002-05-02 06:54:46 51°14.547 2°54.539 39.275581 0.055997 0.28109  
2002-05-02 06:54:50 51°14.555 2°54.521 14.723775 0.001556 0.015814  
2002-05-02 06:54:55 51°14.563 2°54.498 13.318305 0.001655 0.016137  
2002-05-02 06:55:00 51°14.572 2°54.475 12.87005 0.001655 0.016134  
2002-05-02 06:55:06 51°14.582 2°54.447 12.835869 0.001655 0.016131  
2002-05-02 06:55:10 51°14.589 2°54.429 12.17336 0.001655 0.016124  
2002-05-02 06:55:16 51°14.6 2°54.401 12.17336 0.001655 0.016124  
2002-05-02 06:55:21 51°14.608 2°54.378 12.182299 0.002247 0.018468  
2002-05-02 06:55:26 51°14.617 2°54.355 11.971623 0.004613 0.028524  
2002-05-02 06:55:30 51°14.624 2°54.337 12.069273 0.005599 0.032893  
2002-05-02 06:55:36 51°14.634 2°54.309 11.871185 0.015163 0.077494  
2002-05-02 06:55:40 51°14.641 2°54.29 11.889918 0.374485 2.111804  
2002-05-02 06:55:46 51°14.651 2°54.263 11.889918 0.374485 2.111804  
2002-05-02 06:55:50 51°14.658 2°54.244 11.835345 0.299957 1.726405  
2002-05-02 06:55:56 51°14.669 2°54.216 12.038725 0.298473 1.721895  
2002-05-02 06:56:00 51°14.676 2°54.198 11.839405 0.517154 3.121218  
2002-05-02 06:56:06 51°14.686 2°54.171 11.633809 0.669612 4.13445  
2002-05-02 06:56:10 51°14.693 2°54.152 11.805328 0.505457 3.050574  
2002-05-02 06:56:16 51°14.704 2°54.125 11.805328 0.505457 3.050574  
2002-05-02 06:56:20 51°14.711 2°54.106 11.931193 0.442827 2.644194  
2002-05-02 06:56:26 51°14.722 2°54.079 11.658052 0.503673 3.029301  
2002-05-02 06:56:30 51°14.729 2°54.06 11.875151 0.482562 2.897286  
2002-05-02 06:56:36 51°14.74 2°54.033 11.743378 0.486526 2.918925  
2002-05-02 06:56:41 51°14.748 2°54.011 11.61299 0.48722 2.922876  
2002-05-02 06:56:46 51°14.757 2°53.988 11.61299 0.48722 2.922876  
2002-05-02 06:56:50 51°14.765 2°53.97 11.597475 0.456896 2.723398  
2002-05-02 06:56:56 51°14.775 2°53.943 11.693576 0.463931 2.774536  
2002-05-02 06:57:00 51°14.783 2°53.925 11.582276 0.472552 2.825582  
2002-05-02 06:57:06 51°14.793 2°53.898 11.487663 0.467697 2.789673  
2002-05-02 06:57:11 51°14.802 2°53.876 11.517047 0.4565 2.71905  
2002-05-02 06:57:16 51°14.81 2°53.852 11.517047 0.4565 2.71905  
2002-05-02 06:57:20 51°14.816 2°53.834 11.681142 0.475624 2.836218  
2002-05-02 06:57:26 51°14.824 2°53.805 11.774474 0.429948 2.547678  
2002-05-02 06:57:31 51°14.832 2°53.781 11.544905 0.498419 2.976283  
2002-05-02 06:57:36 51°14.838 2°53.757 11.538217 0.4457 2.644795  
2002-05-02 06:57:41 51°14.846 2°53.732 11.564555 0.465417 2.76584  
2002-05-02 06:57:46 51°14.853 2°53.707 11.564555 0.465417 2.76584  
2002-05-02 06:57:51 51°14.861 2°53.683 11.548158 0.466706 2.777401  
2002-05-02 06:57:56 51°14.868 2°53.658 11.809982 0.462445 2.756615  
2002-05-02 06:58:00 51°14.874 2°53.638 11.576461 0.477012 2.840784  
2002-05-02 06:58:06 51°14.883 2°53.608 11.463863 0.471165 2.805796  
2002-05-02 06:58:11 51°14.89 2°53.583 11.634084 0.468687 2.790826  
2002-05-02 06:58:16 51°14.898 2°53.558 11.634084 0.468687 2.790826  
2002-05-02 06:58:21 51°14.905 2°53.534 11.747717 0.491481 2.933897  
2002-05-02 06:58:26 51°14.913 2°53.509 11.404025 0.454815 2.702466  
2002-05-02 06:58:30 51°14.92 2°53.489 11.776026 0.498518 2.978867  
2002-05-02 06:58:36 51°14.93 2°53.459 11.509484 0.447483 2.65527  
2002-05-02 06:58:41 51°14.938 2°53.434 11.443908 0.490787 2.930399  
2002-05-02 06:58:45 51°14.945 2°53.414 11.443908 0.490787 2.930399  
2002-05-02 06:58:50 51°14.953 2°53.388 11.651878 0.477804 2.845812  
2002-05-02 06:58:55 51°14.961 2°53.363 11.426975 0.455509 2.703837  
2002-05-02 06:59:00 51°14.97 2°53.338 11.466202 0.485733 2.893328  
2002-05-02 06:59:06 51°14.98 2°53.307 11.455239 0.454815 2.698087  
2002-05-02 06:59:11 51°14.988 2°53.282 11.609741 0.475228 2.827945  
2002-05-02 06:59:15 51°14.995 2°53.262 11.609741 0.475228 2.827945  
2002-05-02 06:59:20 51°15.003 2°53.236 11.573714 0.474732 2.821572  
2002-05-02 06:59:26 51°15.013 2°53.205 11.603334 0.454914 2.698447  
2002-05-02 06:59:31 51°15.021 2°53.18 11.495457 0.499212 2.978107  
2002-05-02 06:59:36 51°15.029 2°53.154 11.635685 0.463634 2.749653  
2002-05-02 06:59:40 51°15.036 2°53.134 11.560204 0.457589 2.714492  
2002-05-02 06:59:46 51°15.046 2°53.103 11.560204 0.457589 2.714492  
2002-05-02 06:59:50 51°15.052 2°53.083 11.597612 0.477705 2.841226  
2002-05-02 06:59:55 51°15.061 2°53.058 11.562677 0.44134 2.610018  
2002-05-02 07:00:00 51°15.069 2°53.032 11.410911 0.459967 2.72692  
2002-05-02 07:00:06 51°15.079 2°53.002 11.709572 0.472948 2.81047  
2002-05-02 07:00:11 51°15.087 2°52.976 11.412151 0.465615 2.764514  
2002-05-02 07:00:16 51°15.095 2°52.95 11.412151 0.465615 2.764514  
2002-05-02 07:00:20 51°15.102 2°52.93 11.330163 0.480183 2.855145  
2002-05-02 07:00:26 51°15.111 2°52.899 11.411921 0.460165 2.729374  
2002-05-02 07:00:30 51°15.118 2°52.879 11.560296 0.48712 2.898479  
2002-05-02 07:00:36 51°15.128 2°52.848 11.335678 0.448375 2.653378  
2002-05-02 07:00:41 51°15.136 2°52.822 11.346523 0.484543 2.884179  
2002-05-02 07:00:46 51°15.144 2°52.797 11.346523 0.484543 2.884179  
2002-05-02 07:00:50 51°15.151 2°52.776 11.605851 0.469084 2.784161  
2002-05-02 07:00:56 51°15.16 2°52.745 11.720035 0.460364 2.73067  
2002-05-02 07:01:00 51°15.167 2°52.725 11.538033 0.479489 2.850659  
2002-05-02 07:01:06 51°15.177 2°52.694 11.496328 0.466804 2.771712  
2002-05-02 07:01:11 51°15.185 2°52.668 11.46079 0.474732 2.825176  
2002-05-02 07:01:16 51°15.193 2°52.642 11.46079 0.474732 2.825176  
2002-05-02 07:01:21 51°15.202 2°52.617 11.576461 0.489598 2.916807  
2002-05-02 07:01:26 51°15.21 2°52.592 11.573347 0.4457 2.64211  
2002-05-02 07:01:30 51°15.216 2°52.572 11.391721 0.488508 2.912893  
2002-05-02 07:01:35 51°15.224 2°52.546 11.539728 0.478696 2.849461  
2002-05-02 07:01:40 51°15.232 2°52.521 11.580307 0.454121 2.694636  
2002-05-02 07:01:46 51°15.242 2°52.491 11.580307 0.454121 2.694636  
2002-05-02 07:01:51 51°15.25 2°52.466 11.357596 0.445898 2.637315  
2002-05-02 07:01:56 51°15.258 2°52.441 11.468678 0.485832 2.891685  
2002-05-02 07:02:00 51°15.265 2°52.42 11.655994 0.472849 2.809062  
2002-05-02 07:02:06 51°15.275 2°52.389 11.432436 0.48385 2.878369  
2002-05-02 07:02:11 51°15.284 2°52.363 11.430601 0.460661 2.73085  
2002-05-02 07:02:16 51°15.292 2°52.337 11.430601 0.460661 2.73085  
2002-05-02 07:02:20 51°15.299 2°52.316 11.616331 0.462345 2.742554  
2002-05-02 07:02:26 51°15.309 2°52.284 11.466156 0.469975 2.788976  
2002-05-02 07:02:31 51°15.318 2°52.258 11.425874 0.476714 2.832634  
2002-05-02 07:02:36 51°15.327 2°52.232 11.466982 0.471264 2.796933  
2002-05-02 07:02:40 51°15.333 2°52.212 11.616468 0.472552 2.804798  
2002-05-02 07:02:46 51°15.344 2°52.181 11.616468 0.472552 2.804798  
2002-05-02 07:02:50 51°15.35 2°52.161 11.618116 0.469084 2.784207  
2002-05-02 07:02:56 51°15.36 2°52.131 11.617841 0.463237 2.745627  
2002-05-02 07:03:01 51°15.369 2°52.106 11.465239 0.476615 2.831868  
2002-05-02 07:03:06 51°15.377 2°52.081 11.237811 0.467003 2.771469  
2002-05-02 07:03:10 51°15.384 2°52.061 11.614729 0.490886 2.920683  
2002-05-02 07:03:15 51°15.392 2°52.037 11.614729 0.490886 2.920683  
2002-05-02 07:03:20 51°15.4 2°52.013 11.304697 0.465813 2.76292  
2002-05-02 07:03:26 51°15.41 2°51.984 11.606309 0.47275 2.806921  
2002-05-02 07:03:31 51°15.418 2°51.959 11.563868 0.47384 2.812526  
2002-05-02 07:03:36 51°15.426 2°51.935 11.525662 0.477606 2.836423  
2002-05-02 07:03:40 51°15.432 2°51.916 11.374683 0.471264 2.796613  
2002-05-02 07:03:45 51°15.44 2°51.892 11.374683 0.471264 2.796613  
2002-05-02 07:03:51 51°15.45 2°51.863 11.484499 0.461255 2.732637  
2002-05-02 07:03:55 51°15.456 2°51.843 11.36885 0.459274 2.720145  
2002-05-02 07:04:01 51°15.466 2°51.815 11.55654 0.495545 2.948917  
2002-05-02 07:04:05 51°15.472 2°51.795 11.516909 0.475525 2.82262  
2002-05-02 07:04:10 51°15.48 2°51.771 11.626901 0.482759 2.868602  
2002-05-02 07:04:15 51°15.488 2°51.747 11.626901 0.482759 2.868602  
2002-05-02 07:04:20 51°15.496 2°51.723 11.513151 0.44996 2.660101  
2002-05-02 07:04:26 51°15.506 2°51.694 11.470788 0.483651 2.872512  
2002-05-02 07:04:31 51°15.514 2°51.67 11.469 0.47711 2.832041  
2002-05-02 07:04:36 51°15.522 2°51.646 11.656543 0.448276 2.649337  
2002-05-02 07:04:40 51°15.528 2°51.627 11.427159 0.46512 2.754942  
2002-05-02 07:04:45 51°15.536 2°51.603 11.427159 0.46512 2.754942  
2002-05-02 07:04:51 51°15.546 2°51.574 11.500821 0.460165 2.724076  
2002-05-02 07:04:56 51°15.554 2°51.55 11.574996 0.46621 2.76267  
2002-05-02 07:05:00 51°15.56 2°51.53 11.724147 0.476615 2.827987  
2002-05-02 07:05:06 51°15.57 2°51.502 11.613311 0.467894 2.773161  
2002-05-02 07:05:10 51°15.576 2°51.482 11.345512 0.484345 2.876618  
2002-05-02 07:05:15 51°15.584 2°51.458 11.345512 0.484345 2.876618  
2002-05-02 07:05:20 51°15.592 2°51.434 11.378312 0.463237 2.743656  
2002-05-02 07:05:26 51°15.602 2°51.405 11.303731 0.477209 2.83313  
2002-05-02 07:05:30 51°15.608 2°51.386 11.419999 0.483255 2.871973  
2002-05-02 07:05:35 51°15.616 2°51.362 11.421514 0.479588 2.849377  
2002-05-02 07:05:40 51°15.624 2°51.338 11.340457 0.496238 2.954184  
2002-05-02 07:05:45 51°15.633 2°51.314 11.340457 0.496238 2.954184  
2002-05-02 07:05:51 51°15.642 2°51.285 11.340963 0.470966 2.794917  
2002-05-02 07:05:56 51°15.649 2°51.26 11.41417 0.519335 3.103877  
2002-05-02 07:06:00 51°15.654 2°51.24 11.449826 0.471858 2.803666  
2002-05-02 07:06:06 51°15.663 2°51.209 11.45189 0.526373 3.149986  
2002-05-02 07:06:10 51°15.668 2°51.189 11.37404 0.481273 2.861439  
2002-05-02 07:06:16 51°15.676 2°51.157 11.37404 0.481273 2.861439  
2002-05-02 07:06:20 51°15.681 2°51.136 11.408111 0.499509 2.98234  
2002-05-02 07:06:26 51°15.689 2°51.104 11.32906 0.511999 3.057914  
2002-05-02 07:06:31 51°15.695 2°51.078 11.553792 0.509818 3.048074  
2002-05-02 07:06:36 51°15.702 2°51.051 11.329152 0.546996 3.285069  
2002-05-02 07:06:40 51°15.707 2°51.03 11.43753 0.478597 2.849626  
2002-05-02 07:06:46 51°15.715 2°50.998 11.43753 0.478597 2.849626  
2002-05-02 07:06:50 51°15.721 2°50.977 11.479914 0.546104 3.282418  
2002-05-02 07:06:56 51°15.729 2°50.946 11.361225 0.517352 3.091752  
2002-05-02 07:07:01 51°15.736 2°50.919 11.433997 0.47493 2.829213  
2002-05-02 07:07:06 51°15.743 2°50.893 11.432712 0.570499 3.438174  
2002-05-02 07:07:10 51°15.749 2°50.872 11.686811 0.468786 2.788618  
2002-05-02 07:07:15 51°15.756 2°50.846 11.686811 0.468786 2.788618  
2002-05-02 07:07:20 51°15.763 2°50.819 11.533589 0.527662 3.165103  
2002-05-02 07:07:26 51°15.771 2°50.787 11.493303 0.550368 3.308683  
2002-05-02 07:07:30 51°15.776 2°50.766 11.642272 0.485039 2.896041  
2002-05-02 07:07:36 51°15.781 2°50.733 11.295684 0.519533 3.113087  
2002-05-02 07:07:40 51°15.784 2°50.711 11.444321 0.456896 2.710513  
2002-05-02 07:07:45 51°15.786 2°50.683 11.444321 0.456896 2.710513  
2002-05-02 07:07:51 51°15.787 2°50.649 11.441246 0.510116 3.05247  
2002-05-02 07:07:55 51°15.788 2°50.626 11.36591 0.493463 2.942981  
2002-05-02 07:08:00 51°15.788 2°50.598 11.51228 0.479786 2.859837  
2002-05-02 07:08:05 51°15.787 2°50.569 11.437989 0.55126 3.316421  
2002-05-02 07:08:10 51°15.787 2°50.541 11.397965 0.47166 2.808201  
2002-05-02 07:08:16 51°15.786 2°50.507 11.397965 0.47166 2.808201  
2002-05-02 07:08:21 51°15.785 2°50.478 11.511043 0.604024 3.662743  
2002-05-02 07:08:26 51°15.785 2°50.45 11.658006 0.540849 3.252683  
2002-05-02 07:08:30 51°15.785 2°50.427 11.472026 0.554335 3.34721  
2002-05-02 07:08:36 51°15.785 2°50.393 11.623332 0.63349 3.852389  
2002-05-02 07:08:41 51°15.786 2°50.364 11.775113 0.515865 3.096779  
2002-05-02 07:08:46 51°15.786 2°50.335 11.775113 0.515865 3.096779  
2002-05-02 07:08:51 51°15.788 2°50.307 11.276736 0.626941 3.819008  
2002-05-02 07:08:55 51°15.789 2°50.284 11.722777 0.56802 3.434347  
2002-05-02 07:09:01 51°15.79 2°50.25 11.611068 0.590038 3.580169  
2002-05-02 07:09:05 51°15.792 2°50.227 11.498712 0.533215 3.208216  
2002-05-02 07:09:10 51°15.793 2°50.198 11.158187 0.588748 3.569398  
2002-05-02 07:09:16 51°15.795 2°50.162 11.158187 0.588748 3.569398  
2002-05-02 07:09:21 51°15.797 2°50.133 11.611114 0.57397 3.469854  
2002-05-02 07:09:26 51°15.798 2°50.103 11.266202 0.565838 3.418071  
2002-05-02 07:09:30 51°15.8 2°50.079 11.490781 0.556913 3.35934  
2002-05-02 07:09:36 51°15.802 2°50.043 11.380149 0.609084 3.699616  
2002-05-02 07:09:40 51°15.803 2°50.019 11.232334 0.544716 3.281544  
2002-05-02 07:09:46 51°15.805 2°49.983 11.232334 0.544716 3.281544  
2002-05-02 07:09:51 51°15.806 2°49.952 11.224555 0.590534 3.57913  
2002-05-02 07:09:56 51°15.808 2°49.922 11.26634 0.571292 3.45138  
2002-05-02 07:10:01 51°15.809 2°49.892 11.261602 0.559094 3.374553  
2002-05-02 07:10:06 51°15.811 2°49.862 11.376658 0.574863 3.477792  
2002-05-02 07:10:11 51°15.812 2°49.832 11.336138 0.574764 3.47956  
2002-05-02 07:10:16 51°15.814 2°49.802 11.336138 0.574764 3.47956  
2002-05-02 07:10:20 51°15.815 2°49.778 11.443541 0.552748 3.335063  
2002-05-02 07:10:25 51°15.817 2°49.747 11.292144 0.582797 3.529771  
2002-05-02 07:10:31 51°15.819 2°49.711 11.477163 0.606306 3.680559  
2002-05-02 07:10:36 51°15.82 2°49.681 11.323269 0.500996 3.000604  
2002-05-02 07:10:40 51°15.821 2°49.657 11.172148 0.569011 3.442395  
2002-05-02 07:10:45 51°15.823 2°49.627 11.172148 0.569011 3.442395  
2002-05-02 07:10:50 51°15.825 2°49.597 11.403015 0.574764 3.475262  
2002-05-02 07:10:55 51°15.826 2°49.567 11.359755 0.519335 3.126245  
2002-05-02 07:11:01 51°15.828 2°49.531 11.212355 0.643611 3.93529  
2002-05-02 07:11:05 51°15.829 2°49.506 11.129888 0.550368 3.321768  
2002-05-02 07:11:11 51°15.831 2°49.47 11.320833 0.59718 3.634341  
2002-05-02 07:11:16 51°15.832 2°49.44 11.320833 0.59718 3.634341  
2002-05-02 07:11:20 51°15.834 2°49.416 11.205863 0.633689 3.875449  
2002-05-02 07:11:26 51°15.835 2°49.38 11.359755 0.549178 3.323369  
2002-05-02 07:11:31 51°15.837 2°49.35 11.246371 0.629025 3.848728  
2002-05-02 07:11:35 51°15.838 2°49.326 11.544539 0.587856 3.574706  
2002-05-02 07:11:41 51°15.841 2°49.289 11.277932 0.535694 3.232963  
2002-05-02 07:11:46 51°15.842 2°49.259 11.277932 0.535694 3.232963  
2002-05-02 07:11:51 51°15.845 2°49.229 11.470696 0.668123 4.098552  
2002-05-02 07:11:56 51°15.847 2°49.199 11.467211 0.555921 3.367934  
2002-05-02 07:12:00 51°15.849 2°49.175 11.240619 0.533314 3.226178  
2002-05-02 07:12:05 51°15.851 2°49.145 11.430417 0.637558 3.898305  
2002-05-02 07:12:11 51°15.853 2°49.109 11.240711 0.592915 3.610085  
2002-05-02 07:12:15 51°15.855 2°49.085 11.240711 0.592915 3.610085  
2002-05-02 07:12:20 51°15.858 2°49.054 11.241493 0.580715 3.531915  
2002-05-02 07:12:26 51°15.861 2°49.018 11.275724 0.567822 3.446767  
2002-05-02 07:12:30 51°15.862 2°48.993 11.389471 0.586368 3.568353  
2002-05-02 07:12:35 51°15.865 2°48.963 11.162657 0.568417 3.450909  
2002-05-02 07:12:40 51°15.867 2°48.933 11.349877 0.582798 3.546268  
2002-05-02 07:12:46 51°15.87 2°48.897 11.349877 0.582798 3.546268  
2002-05-02 07:12:51 51°15.872 2°48.866 11.236937 0.616227 3.763264  
2002-05-02 07:12:56 51°15.874 2°48.836 11.499079 0.579624 3.525355  
2002-05-02 07:13:00 51°15.876 2°48.812 11.34588 0.584285 3.556586  
2002-05-02 07:13:06 51°15.879 2°48.775 11.45767 0.59718 3.635786  
2002-05-02 07:13:10 51°15.881 2°48.751 11.230309 0.593113 3.611495  
2002-05-02 07:13:16 51°15.883 2°48.714 11.230309 0.593113 3.611495  
2002-05-02 07:13:21 51°15.885 2°48.684 11.418577 0.602834 3.678794  
2002-05-02 07:13:26 51°15.888 2°48.654 11.413298 0.576946 3.507501  
2002-05-02 07:13:31 51°15.89 2°48.623 11.303225 0.606207 3.698643  
2002-05-02 07:13:35 51°15.892 2°48.599 11.41518 0.539263 3.264903  
2002-05-02 07:13:40 51°15.894 2°48.569 11.30065 0.599462 3.660027  
2002-05-02 07:13:46 51°15.896 2°48.532 11.30065 0.599462 3.660027  
2002-05-02 07:13:50 51°15.899 2°48.508 11.297984 0.58498 3.561809  
2002-05-02 07:13:56 51°15.901 2°48.471 11.292557 0.554236 3.365953  
2002-05-02 07:14:01 51°15.904 2°48.441 11.296512 0.63101 3.873094  
2002-05-02 07:14:06 51°15.908 2°48.411 11.181499 0.6072 3.720486  
2002-05-02 07:14:10 51°15.911 2°48.387 11.291776 0.625156 3.83386  
2002-05-02 07:14:16 51°15.917 2°48.352 11.291776 0.625156 3.83386  
2002-05-02 07:14:20 51°15.921 2°48.328 11.404852 0.566136 3.449163  
2002-05-02 07:14:26 51°15.929 2°48.294 11.322901 0.712592 4.422177  
2002-05-02 07:14:30 51°15.933 2°48.27 11.363384 0.51884 3.135284  
2002-05-02 07:14:36 51°15.942 2°48.236 11.058302 0.640834 3.955474  
2002-05-02 07:14:41 51°15.948 2°48.207 11.13081 0.610672 3.740731  
2002-05-02 07:14:46 51°15.955 2°48.179 11.13081 0.610672 3.740731  
2002-05-02 07:14:51 51°15.962 2°48.15 11.321476 0.582997 3.569595  
2002-05-02 07:14:56 51°15.969 2°48.122 11.463954 0.672193 4.154558  
2002-05-02 07:15:01 51°15.975 2°48.093 11.351347 0.49505 2.990139  
2002-05-02 07:15:06 51°15.983 2°48.065 11.160491 0.597974 3.662927  
2002-05-02 07:15:10 51°15.987 2°48.041 11.309432 0.598569 3.657608  
2002-05-02 07:15:16 51°15.996 2°48.007 11.309432 0.598569 3.657608  
2002-05-02 07:15:21 51°16.001 2°47.978 11.422478 0.528655 3.208681  
2002-05-02 07:15:26 51°16.008 2°47.949 11.308191 0.658298 4.059203  
2002-05-02 07:15:31 51°16.013 2°47.92 11.272826 0.489797 2.950999  
2002-05-02 07:15:36 51°16.02 2°47.891 11.305248 0.646192 3.986851  
2002-05-02 07:15:41 51°16.026 2°47.862 11.302812 0.633392 3.903036  
2002-05-02 07:15:45 51°16.031 2°47.839 11.302812 0.633392 3.903036  
2002-05-02 07:15:50 51°16.037 2°47.81 11.52557 0.568318 3.481683  
2002-05-02 07:15:56 51°16.046 2°47.776 11.301202 0.65423 4.047038  
2002-05-02 07:16:00 51°16.051 2°47.753 11.372479 0.585575 3.591024  
2002-05-02 07:16:06 51°16.06 2°47.719 11.3728 0.616823 3.800532  
2002-05-02 07:16:11 51°16.066 2°47.691 11.330669 0.672391 4.163599  
2002-05-02 07:16:15 51°16.072 2°47.668 11.330669 0.672391 4.163599  
2002-05-02 07:16:20 51°16.079 2°47.639 11.183664 0.591527 3.638002  
2002-05-02 07:16:26 51°16.088 2°47.605 11.441384 0.647581 4.014237  
2002-05-02 07:16:30 51°16.093 2°47.583 11.289338 0.635178 3.921897  
2002-05-02 07:16:36 51°16.102 2°47.548 11.553471 0.571789 3.50639  
2002-05-02 07:16:40 51°16.107 2°47.526 11.17224 0.603926 3.711438  
2002-05-02 07:16:46 51°16.116 2°47.492 11.17224 0.603926 3.711438  
2002-05-02 07:16:51 51°16.122 2°47.463 11.32474 0.624264 3.847433  
2002-05-02 07:16:56 51°16.129 2°47.435 11.171503 0.650558 4.027204  
2002-05-02 07:17:01 51°16.136 2°47.407 11.097518 0.637758 3.942109  
2002-05-02 07:17:05 51°16.141 2°47.384 11.285659 0.568318 3.482442  
2002-05-02 07:17:10 51°16.148 2°47.355 11.248442 0.629324 3.886323  
2002-05-02 07:17:16 51°16.155 2°47.321 11.248442 0.629324 3.886323  
2002-05-02 07:17:20 51°16.16 2°47.298 11.515076 0.611565 3.772052  
2002-05-02 07:17:26 51°16.167 2°47.263 11.439595 0.575261 3.536718  
2002-05-02 07:17:31 51°16.174 2°47.235 11.1774 0.664253 4.124767  
2002-05-02 07:17:36 51°16.18 2°47.206 11.211296 0.582898 3.585857  
2002-05-02 07:17:40 51°16.185 2°47.183 11.443678 0.674079 4.200639  
2002-05-02 07:17:46 51°16.192 2°47.148 11.443678 0.674079 4.200639  
2002-05-02 07:17:51 51°16.199 2°47.12 11.293707 0.631209 3.911585  
2002-05-02 07:17:55 51°16.204 2°47.097 11.332875 0.551857 3.389829  
2002-05-02 07:18:01 51°16.212 2°47.063 11.22032 0.672888 4.180907  
2002-05-02 07:18:06 51°16.218 2°47.034 11.256494 0.588055 3.614956  
2002-05-02 07:18:11 51°16.224 2°47.006 11.294581 0.627935 3.88459  
2002-05-02 07:18:15 51°16.23 2°46.983 11.294581 0.627935 3.88459  
2002-05-02 07:18:21 51°16.238 2°46.949 11.445697 0.595693 3.669694  
2002-05-02 07:18:26 51°16.244 2°46.92 11.370641 0.58141 3.57837  
2002-05-02 07:18:30 51°16.249 2°46.897 11.217281 0.598074 3.687411  
2002-05-02 07:18:36 51°16.257 2°46.863 11.144085 0.576253 3.547765  
2002-05-02 07:18:40 51°16.262 2°46.84 11.296558 0.575658 3.541944  
2002-05-02 07:18:46 51°16.269 2°46.806 11.296558 0.575658 3.541944  
2002-05-02 07:18:51 51°16.275 2°46.777 11.332002 0.629324 3.896205  
2002-05-02 07:18:55 51°16.279 2°46.754 11.333105 0.565542 3.472373  
2002-05-02 07:19:01 51°16.286 2°46.719 11.333151 0.595594 3.672809  
2002-05-02 07:19:05 51°16.291 2°46.696 11.294811 0.607498 3.753385  
2002-05-02 07:19:11 51°16.298 2°46.661 11.179703 0.617518 3.821522  
2002-05-02 07:19:16 51°16.304 2°46.633 11.179703 0.617518 3.821522  
2002-05-02 07:19:21 51°16.31 2°46.604 11.293661 0.578931 3.565494  
2002-05-02 07:19:26 51°16.316 2°46.575 11.294765 0.620395 3.844708  
2002-05-02 07:19:31 51°16.321 2°46.547 11.067162 0.595396 3.676268  
2002-05-02 07:19:35 51°16.326 2°46.524 11.369447 0.565343 3.477329  
2002-05-02 07:19:40 51°16.332 2°46.496 11.480969 0.642025 3.987205  
2002-05-02 07:19:46 51°16.34 2°46.462 11.480969 0.642025 3.987205  
2002-05-02 07:19:51 51°16.345 2°46.433 11.295684 0.582402 3.591599  
2002-05-02 07:19:56 51°16.351 2°46.405 11.219307 0.605216 3.745771  
2002-05-02 07:20:00 51°16.355 2°46.382 11.331588 0.566831 3.486276  
2002-05-02 07:20:06 51°16.361 2°46.347 11.405953 0.56098 3.452526  
2002-05-02 07:20:10 51°16.365 2°46.325 11.367702 0.586171 3.616613  
2002-05-02 07:20:16 51°16.371 2°46.29 11.367702 0.586171 3.616613  
2002-05-02 07:20:20 51°16.375 2°46.267 11.175972 0.564749 3.480167  
2002-05-02 07:20:26 51°16.381 2°46.232 11.137402 0.630614 3.918016  
2002-05-02 07:20:30 51°16.385 2°46.208 11.213276 0.601149 3.719129  
2002-05-02 07:20:35 51°16.39 2°46.179 11.1386 0.61732 3.834309  
2002-05-02 07:20:40 51°16.395 2°46.15 11.398654 0.612657 3.803682  
2002-05-02 07:20:46 51°16.401 2°46.115 11.398654 0.612657 3.803682  
2002-05-02 07:20:51 51°16.406 2°46.085 11.211848 0.566435 3.498352  
2002-05-02 07:20:56 51°16.411 2°46.056 11.100608 0.633194 3.944167  
2002-05-02 07:21:01 51°16.416 2°46.026 11.326854 0.56336 3.474439  
2002-05-02 07:21:06 51°16.421 2°45.997 11.214381 0.537381 3.308251  
2002-05-02 07:21:11 51°16.427 2°45.968 11.479364 0.644506 4.017801  
2002-05-02 07:21:16 51°16.431 2°45.938 11.479364 0.644506 4.017801  
2002-05-02 07:21:21 51°16.437 2°45.909 11.405265 0.610871 3.796787  
2002-05-02 07:21:27 51°16.443 2°45.873 11.258703 0.564749 3.492324  
2002-05-02 07:21:31 51°16.447 2°45.85 11.372616 0.620891 3.870031  
2002-05-02 07:21:36 51°16.452 2°45.821 11.527953 0.592916 3.681343  
2002-05-02 07:21:41 51°16.458 2°45.791 11.419311 0.563063 3.479543  
2002-05-02 07:21:46 51°16.463 2°45.762 11.419311 0.563063 3.479543  
2002-05-02 07:21:51 51°16.469 2°45.733 11.42335 0.606705 3.774625  
2002-05-02 07:21:55 51°16.474 2°45.71 11.200383 0.654926 4.097825  
2002-05-02 07:22:01 51°16.481 2°45.675 11.389792 0.523203 3.224142  
2002-05-02 07:22:06 51°16.488 2°45.647 11.842734 0.671698 4.222158  
2002-05-02 07:22:11 51°16.493 2°45.618 11.319822 0.62357 3.887091  
2002-05-02 07:22:16 51°16.501 2°45.59 11.319822 0.62357 3.887091  
2002-05-02 07:22:20 51°16.506 2°45.567 11.172655 0.599067 3.74021  
2002-05-02 07:22:26 51°16.516 2°45.534 11.398149 0.709318 4.478314  
2002-05-02 07:22:30 51°16.522 2°45.511 11.13648 0.542933 3.352399  
2002-05-02 07:22:36 51°16.533 2°45.479 11.287775 0.608987 3.801888  
2002-05-02 07:22:41 51°16.542 2°45.452 11.215854 0.701475 4.416468  
2002-05-02 07:22:46 51°16.553 2°45.426 11.215854 0.701475 4.416468  
2002-05-02 07:22:50 51°16.561 2°45.405 11.516405 0.515471 3.179463  
2002-05-02 07:22:56 51°16.575 2°45.376 11.291086 0.723019 4.570583  
2002-05-02 07:23:01 51°16.586 2°45.352 11.254378 0.618213 3.857367  
2002-05-02 07:23:05 51°16.597 2°45.334 11.293523 0.584188 3.638255  
2002-05-02 07:23:11 51°16.611 2°45.305 11.370136 0.692045 4.349948  
2002-05-02 07:23:16 51°16.625 2°45.284 11.370136 0.692045 4.349948  
2002-05-02 07:23:20 51°16.635 2°45.266 11.256034 0.539761 3.344914  
2002-05-02 07:23:26 51°16.653 2°45.243 11.405311 0.721331 4.578335  
2002-05-02 07:23:31 51°16.666 2°45.222 11.587083 0.530242 3.278113  
2002-05-02 07:23:35 51°16.679 2°45.207 11.210467 0.691649 4.381794  
2002-05-02 07:23:40 51°16.693 2°45.186 11.315133 0.610772 3.808216  
2002-05-02 07:23:46 51°16.712 2°45.165 11.315133 0.610772 3.808216  
2002-05-02 07:23:51 51°16.726 2°45.144 11.799487 0.553147 3.436559  
2002-05-02 07:23:56 51°16.742 2°45.128 11.310857 0.756382 4.799569  
2002-05-02 07:24:00 51°16.754 2°45.112 11.188224 0.468689 2.875119  
2002-05-02 07:24:05 51°16.77 2°45.094 11.219675 0.729771 4.639189  
2002-05-02 07:24:11 51°16.788 2°45.072 11.402556 0.553543 3.424856  
2002-05-02 07:24:16 51°16.804 2°45.055 11.402556 0.553543 3.424856  
2002-05-02 07:24:20 51°16.816 2°45.039 11.621456 0.658103 4.184068  
2002-05-02 07:24:26 51°16.834 2°45.018 11.38644 0.735727 4.656099  
2002-05-02 07:24:31 51°16.849 2°44.998 11.455056 0.54105 3.379071  
2002-05-02 07:24:36 51°16.865 2°44.98 11.44923 0.873807 5.652993  
2002-05-02 07:24:41 51°16.879 2°44.96 11.025851 0.633989 3.993693  
2002-05-02 07:24:46 51°16.895 2°44.942 11.025851 0.633989 3.993693  
2002-05-02 07:24:51 51°16.91 2°44.922 11.1733 0.737616 4.739509  
2002-05-02 07:24:56 51°16.925 2°44.904 11.284877 0.801375 5.141094  
2002-05-02 07:25:01 51°16.94 2°44.883 11.195409 0.59758 3.775975  
2002-05-02 07:25:06 51°16.955 2°44.865 11.073853 0.849063 5.492115  
2002-05-02 07:25:10 51°16.967 2°44.849 11.030098 0.616726 3.884942  
2002-05-02 07:25:15 51°16.981 2°44.829 11.030098 0.616726 3.884942  
2002-05-02 07:25:21 51°16.999 2°44.805 11.32929 0.784291 5.057378  
2002-05-02 07:25:26 51°17.014 2°44.786 11.059733 0.718651 4.577341  
2002-05-02 07:25:31 51°17.029 2°44.766 11.093597 0.711405 4.577273  
2002-05-02 07:25:36 51°17.043 2°44.746 11.163993 0.878776 5.711888  
2002-05-02 07:25:41 51°17.058 2°44.727 11.039886 0.559593 3.50801  
2002-05-02 07:25:46 51°17.073 2°44.706 11.039886 0.559593 3.50801  
2002-05-02 07:25:51 51°17.088 2°44.687 11.042886 0.902133 5.879655  
2002-05-02 07:25:56 51°17.102 2°44.667 11.183618 0.611567 3.854333  
2002-05-02 07:26:00 51°17.115 2°44.652 11.105174 0.780915 5.074233  
2002-05-02 07:26:06 51°17.132 2°44.628 11.32212 0.800878 5.150034  
2002-05-02 07:26:11 51°17.147 2°44.609 11.093413 0.592323 3.753127  
2002-05-02 07:26:16 51°17.161 2°44.588 11.093413 0.592323 3.753127  
2002-05-02 07:26:20 51°17.174 2°44.574 11.203744 0.912272 5.971352  
2002-05-02 07:26:26 51°17.191 2°44.55 11.045563 0.618512 3.920714  
2002-05-02 07:26:29 51°17.201 2°44.54 11.157588 0.889312 5.815097  
2002-05-02 07:26:36 51°17.222 2°44.513 11.192692 0.734339 4.717601  
2002-05-02 07:26:41 51°17.238 2°44.497 11.228928 0.81588 5.334704  
2002-05-02 07:26:46 51°17.254 2°44.48 11.228928 0.81588 5.334704  
2002-05-02 07:26:51 51°17.271 2°44.465 11.152703 0.807833 5.238622  
2002-05-02 07:26:56 51°17.287 2°44.448 11.226442 0.670707 4.294422  
2002-05-02 07:27:01 51°17.304 2°44.434 11.222483 0.875994 5.704068  
2002-05-02 07:27:06 51°17.32 2°44.419 11.25631 0.737715 4.771545  
2002-05-02 07:27:11 51°17.338 2°44.406 11.140674 0.777438 5.054089  
2002-05-02 07:27:15 51°17.351 2°44.396 11.140674 0.777438 5.054089  
2002-05-02 07:27:20 51°17.367 2°44.386 10.948558 0.806442 5.249967  
2002-05-02 07:27:26 51°17.386 2°44.375 11.177676 0.777637 5.062065  
2002-05-02 07:27:30 51°17.399 2°44.369 10.988163 0.814887 5.329046  
2002-05-02 07:27:36 51°17.417 2°44.361 11.213552 0.78449 5.108685  
2002-05-02 07:27:40 51°17.429 2°44.357 11.143486 0.787371 5.133428  
2002-05-02 07:27:46 51°17.447 2°44.354 11.143486 0.787371 5.133428  
2002-05-02 07:27:51 51°17.461 2°44.353 11.175465 0.854232 5.614405  
2002-05-02 07:27:56 51°17.475 2°44.354 11.136756 0.781412 5.101287  
2002-05-02 07:28:00 51°17.484 2°44.356 10.985576 0.796708 5.211564  
2002-05-02 07:28:05 51°17.496 2°44.359 11.249546 0.757874 4.931755  
2002-05-02 07:28:10 51°17.508 2°44.363 11.02031 0.789556 5.154901  
2002-05-02 07:28:16 51°17.52 2°44.368 11.02031 0.789556 5.154901  
2002-05-02 07:28:20 51°17.528 2°44.372 11.204711 0.768202 5.002024  
2002-05-02 07:28:26 51°17.539 2°44.378 11.015322 0.742581 4.818748  
2002-05-02 07:28:31 51°17.547 2°44.382 11.20752 0.761647 4.947185  
2002-05-02 07:28:36 51°17.555 2°44.386 10.940005 0.724411 4.685373  
2002-05-02 07:28:40 51°17.56 2°44.39 11.016061 0.733645 4.750416  
2002-05-02 07:28:46 51°17.568 2°44.396 11.016061 0.733645 4.750416  
2002-05-02 07:28:51 51°17.573 2°44.401 11.167034 0.755292 4.901975  
2002-05-02 07:28:55 51°17.576 2°44.405 11.012598 0.759065 4.927205  
2002-05-02 07:29:01 51°17.581 2°44.411 11.355574 0.75559 4.905948  
2002-05-02 07:29:06 51°17.584 2°44.416 11.205172 0.780716 5.085992  
2002-05-02 07:29:10 51°17.587 2°44.419 11.123941 0.746851 4.847779  
2002-05-02 07:29:15 51°17.589 2°44.423 11.123941 0.746851 4.847779  
2002-05-02 07:29:20 51°17.591 2°44.426 11.274574 0.734042 4.756854  
2002-05-02 07:29:26 51°17.592 2°44.43 11.273608 0.762442 4.955773  
2002-05-02 07:29:30 51°17.593 2°44.432 11.006363 0.767805 4.995284  
2002-05-02 07:29:36 51°17.594 2°44.434 11.003776 0.74417 4.828356  
2002-05-02 07:29:41 51°17.595 2°44.437 11.116103 0.769493 5.007332  
2002-05-02 07:29:46 51°17.596 2°44.439 11.116103 0.769493 5.007332  
2002-05-02 07:29:51 51°17.597 2°44.441 11.002344 0.714582 4.623706  
2002-05-02 07:29:56 51°17.597 2°44.443 11.004792 0.768302 5.004484  
2002-05-02 07:30:00 51°17.597 2°44.445 11.118316 0.751618 4.883628  
2002-05-02 07:30:06 51°17.598 2°44.447 11.005439 0.785285 5.117393  
2002-05-02 07:30:11 51°17.598 2°44.449 11.533131 0.746553 4.850063  
2002-05-02 07:30:16 51°17.599 2°44.451 11.533131 0.746553 4.850063  
2002-05-02 07:30:21 51°17.599 2°44.453 10.893062 0.765024 4.978777  
2002-05-02 07:30:25 51°17.6 2°44.454 11.195501 0.740198 4.802086  
2002-05-02 07:30:30 51°17.6 2°44.456 10.968525 0.753802 4.899197  
2002-05-02 07:30:36 51°17.601 2°44.458 10.931637 0.762144 4.958851  
2002-05-02 07:30:40 51°17.601 2°44.46 11.233393 0.72034 4.66973  
2002-05-02 07:30:45 51°17.601 2°44.461 11.233393 0.72034 4.66973  
2002-05-02 07:30:51 51°17.602 2°44.463 10.858724 0.754497 4.899809  
2002-05-02 07:30:55 51°17.602 2°44.465 10.843863 0.694529 4.482715  
2002-05-02 07:31:00 51°17.602 2°44.466 10.841038 0.752015 4.883641  
2002-05-02 07:31:06 51°17.603 2°44.468 10.839371 0.72044 4.665564  
2002-05-02 07:31:11 51°17.603 2°44.47 10.87733 0.751419 4.88104  
2002-05-02 07:31:15 51°17.603 2°44.471 10.87733 0.751419 4.88104  
2002-05-02 07:31:20 51°17.604 2°44.472 10.841131 0.720142 4.664812  
2002-05-02 07:31:26 51°17.604 2°44.474 10.843631 0.766613 4.995157  
2002-05-02 07:31:31 51°17.604 2°44.476 10.844928 0.754994 4.916694  
2002-05-02 07:31:35 51°17.605 2°44.477 10.847937 0.747249 4.868907  
2002-05-02 07:31:40 51°17.605 2°44.478 10.854465 0.749731 4.882365  
2002-05-02 07:31:46 51°17.606 2°44.48 10.854465 0.749731 4.882365  
2002-05-02 07:31:51 51°17.606 2°44.481 10.857705 0.73434 4.777269  
2002-05-02 07:31:56 51°17.606 2°44.482 10.858816 0.780121 5.093413  
2002-05-02 07:32:00 51°17.607 2°44.483 10.856085 0.748937 4.877163  
2002-05-02 07:32:05 51°17.607 2°44.484 10.85127 0.768501 5.023703  
2002-05-02 07:32:10 51°17.607 2°44.485 10.849002 0.73583 4.797418  
2002-05-02 07:32:16 51°17.608 2°44.487 10.849002 0.73583 4.797418  
2002-05-02 07:32:20 51°17.608 2°44.488 10.848169 0.753406 4.926679  
2002-05-02 07:32:25 51°17.608 2°44.489 10.846039 0.766415 5.021101  
2002-05-02 07:32:31 51°17.609 2°44.49 10.843863 0.732553 4.784197  
2002-05-02 07:32:36 51°17.609 2°44.491 10.842196 0.748639 4.904855  
2002-05-02 07:32:41 51°17.61 2°44.492 10.841316 0.755293 4.943601  
2002-05-02 07:32:46 51°17.61 2°44.493 10.841316 0.755293 4.943601  
2002-05-02 07:32:51 51°17.611 2°44.494 10.840853 0.751122 4.923263  
2002-05-02 07:32:56 51°17.611 2°44.495 10.838167 0.80098 5.276967  
2002-05-02 07:33:01 51°17.612 2°44.496 10.87608 0.746653 4.884291  
2002-05-02 07:33:06 51°17.612 2°44.497 10.837519 0.748739 4.908614  
2002-05-02 07:33:11 51°17.613 2°44.498 10.836686 0.774063 5.084089  
2002-05-02 07:33:16 51°17.613 2°44.499 10.836686 0.774063 5.084089  
2002-05-02 07:33:20 51°17.613 2°44.499 10.836871 0.773864 5.09222  
2002-05-02 07:33:25 51°17.614 2°44.5 10.8365 0.76006 4.994842  
2002-05-02 07:33:31 51°17.614 2°44.501 10.836362 0.767409 5.051898  
2002-05-02 07:33:36 51°17.615 2°44.501 10.835667 0.726894 4.759063  
2002-05-02 07:33:40 51°17.615 2°44.502 10.835852 0.757478 4.974691  
2002-05-02 07:33:45 51°17.616 2°44.503 10.835852 0.757478 4.974691  
2002-05-02 07:33:51 51°17.616 2°44.504 10.83488 0.76433 5.02181  
2002-05-02 07:33:56 51°17.617 2°44.504 10.835019 0.735532 4.823759  
2002-05-02 07:34:00 51°17.617 2°44.505 10.833166 0.779724 5.138009  
2002-05-02 07:34:06 51°17.618 2°44.506 10.832935 0.736029 4.829148  
2002-05-02 07:34:11 51°17.618 2°44.506 10.832194 0.744171 4.884002  
2002-05-02 07:34:16 51°17.619 2°44.507 10.832194 0.744171 4.884002  
2002-05-02 07:34:21 51°17.619 2°44.508 10.832286 0.771282 5.081074  
2002-05-02 07:34:26 51°17.619 2°44.508 10.831638 0.761748 5.003079  
2002-05-02 07:34:31 51°17.62 2°44.509 10.83136 0.766316 5.040128  
2002-05-02 07:34:36 51°17.62 2°44.509 10.868953 0.756584 4.975592  
2002-05-02 07:34:40 51°17.621 2°44.51 10.830851 0.788465 5.205331  
2002-05-02 07:34:46 51°17.621 2°44.51 10.830851 0.788465 5.205331  
2002-05-02 07:34:51 51°17.622 2°44.511 10.830758 0.752115 4.935082  
2002-05-02 07:34:56 51°17.622 2°44.511 10.829786 0.737717 4.828942  
2002-05-02 07:35:00 51°17.623 2°44.512 10.829462 0.754896 4.959695  
2002-05-02 07:35:05 51°17.624 2°44.514 10.829647 0.718058 4.702963  
2002-05-02 07:35:10 51°17.625 2°44.516 10.831129 0.740597 4.867636  
2002-05-02 07:35:16 51°17.628 2°44.521 10.831129 0.740597 4.867636  
2002-05-02 07:35:20 51°17.629 2°44.525 10.835528 0.722427 4.738969  
2002-05-02 07:35:26 51°17.632 2°44.533 10.876913 0.740497 4.870774  
2002-05-02 07:35:30 51°17.634 2°44.539 10.874784 0.755194 4.974686  
2002-05-02 07:35:36 51°17.635 2°44.55 10.837195 0.765522 5.050138  
2002-05-02 07:35:40 51°17.636 2°44.558 10.83437 0.757478 4.99853  
2002-05-02 07:35:46 51°17.635 2°44.57 10.83437 0.757478 4.99853  
2002-05-02 07:35:51 51°17.633 2°44.58 10.870943 0.750229 4.95  
2002-05-02 07:35:56 51°17.63 2°44.59 10.870943 0.769693 5.090164  
2002-05-02 07:36:00 51°17.627 2°44.597 10.834648 0.784095 5.206563  
2002-05-02 07:36:06 51°17.622 2°44.607 10.833722 0.813498 5.403358  
2002-05-02 07:36:11 51°17.616 2°44.613 10.831268 0.773567 5.129552  
2002-05-02 07:36:16 51°17.609 2°44.618 10.831268 0.773567 5.129552  
2002-05-02 07:36:20 51°17.604 2°44.621 10.831777 0.755095 5.005768  
2002-05-02 07:36:26 51°17.595 2°44.623 10.831221 0.781116 5.194145  
2002-05-02 07:36:31 51°17.588 2°44.622 10.831638 0.791545 5.269845  
2002-05-02 07:36:36 51°17.58 2°44.62 10.830434 0.809028 5.400166  
2002-05-02 07:36:40 51°17.574 2°44.616 10.828674 0.761153 5.05955  
2002-05-02 07:36:45 51°17.567 2°44.611 10.828674 0.761153 5.05955  
2002-05-02 07:36:50 51°17.561 2°44.603 10.829647 0.799392 5.337143  
2002-05-02 07:36:56 51°17.554 2°44.592 10.829832 0.799492 5.336113  
2002-05-02 07:37:00 51°17.55 2°44.583 10.83048 0.844596 5.67881  
2002-05-02 07:37:06 51°17.544 2°44.569 10.830249 0.816082 5.46638  
2002-05-02 07:37:11 51°17.54 2°44.556 10.829184 0.811313 5.434561  
2002-05-02 07:37:16 51°17.536 2°44.542 10.829184 0.811313 5.434561  
2002-05-02 07:37:21 51°17.534 2°44.528 10.829276 0.831779 5.587812  
2002-05-02 07:37:25 51°17.532 2°44.517 10.867657 0.769198 5.117211  
2002-05-02 07:37:31 51°17.531 2°44.501 10.829925 0.812704 5.438236  
2002-05-02 07:37:36 51°17.53 2°44.487 10.830619 0.789956 5.281235  
2002-05-02 07:37:41 51°17.531 2°44.475 10.831268 0.804558 5.391781  
2002-05-02 07:37:46 51°17.532 2°44.463 10.831268 0.804558 5.391781  
2002-05-02 07:37:51 51°17.534 2°44.451 10.832009 0.819758 5.504934  
2002-05-02 07:37:56 51°17.535 2°44.439 10.832657 0.773469 5.178771  
2002-05-02 07:38:01 51°17.536 2°44.427 10.833305 0.767112 5.113631  
2002-05-02 07:38:06 51°17.537 2°44.416 10.835806 0.755989 5.022286  
2002-05-02 07:38:10 51°17.539 2°44.407 10.8365 0.759564 5.058485  
2002-05-02 07:38:15 51°17.54 2°44.396 10.8365 0.759564 5.058485  
2002-05-02 07:38:20 51°17.542 2°44.387 10.836825 0.725605 4.809483  
2002-05-02 07:38:26 51°17.543 2°44.376 10.837102 0.758273 5.04377  
2002-05-02 07:38:30 51°17.545 2°44.369 10.83738 0.771283 5.146459  
2002-05-02 07:38:36 51°17.546 2°44.36 10.83701 0.792638 5.314206  
2002-05-02 07:38:40 51°17.547 2°44.355 10.835389 0.754798 5.031204  
2002-05-02 07:38:45 51°17.548 2°44.351 10.835389 0.754798 5.031204  
2002-05-02 07:38:51 51°17.548 2°44.347 10.835528 0.743775 4.934783  
2002-05-02 07:38:56 51°17.549 2°44.345 10.835574 0.765225 5.093479  
2002-05-02 07:39:01 51°17.549 2°44.344 10.837149 0.763636 5.096741  
2002-05-02 07:39:06 51°17.549 2°44.345 10.83738 0.764431 5.095662  
2002-05-02 07:39:10 51°17.55 2°44.344 10.839094 0.767907 5.122011  
2002-05-02 07:39:16 51°17.55 2°44.344 10.839094 0.767907 5.122011  
2002-05-02 07:39:21 51°17.55 2°44.344 10.839464 0.748542 4.983776  
2002-05-02 07:39:27 51°17.55 2°44.343 10.839232 0.745364 4.969402  
2002-05-02 07:39:31 51°17.551 2°44.343 10.839603 0.776945 5.196636  
2002-05-02 07:39:37 51°17.551 2°44.342 10.877283 0.733945 4.894951  
2002-05-02 07:39:41 51°17.551 2°44.342 10.839371 0.780521 5.237001  
2002-05-02 07:39:47 51°17.551 2°44.342 10.839371 0.780521 5.237001  
2002-05-02 07:39:51 51°17.552 2°44.341 10.839325 0.761253 5.097216  
2002-05-02 07:39:56 51°17.552 2°44.341 10.838908 0.757778 5.075966  
2002-05-02 07:40:01 51°17.552 2°44.34 10.838769 0.812307 5.471574  
2002-05-02 07:40:07 51°17.552 2°44.34 10.83826 0.767808 5.142621  
2002-05-02 07:40:11 51°17.552 2°44.339 10.87608 0.767014 5.150842  
2002-05-02 07:40:17 51°17.552 2°44.339 10.87608 0.767014 5.150842  
2002-05-02 07:40:21 51°17.553 2°44.338 10.837751 0.761055 5.1098  
2002-05-02 07:40:26 51°17.552 2°44.338 10.838029 0.749833 5.024611  
2002-05-02 07:40:31 51°17.553 2°44.337 10.837658 0.778237 5.238086  
2002-05-02 07:40:36 51°17.553 2°44.336 10.837612 0.77913 5.243772  
2002-05-02 07:40:40 51°17.553 2°44.335 10.83738 0.755891 5.07774  
2002-05-02 07:40:46 51°17.553 2°44.334 10.83738 0.755891 5.07774  
2002-05-02 07:40:50 51°17.553 2°44.333 10.83738 0.788467 5.321593  
2002-05-02 07:40:56 51°17.554 2°44.332 10.837612 0.740002 4.94495  
2002-05-02 07:41:00 51°17.554 2°44.332 10.837843 0.753905 5.068549  
2002-05-02 07:41:06 51°17.554 2°44.33 10.837612 0.772476 5.20701  
2002-05-02 07:41:11 51°17.554 2°44.329 10.837936 0.759566 5.120676  
2002-05-02 07:41:16 51°17.554 2°44.328 10.837936 0.759566 5.120676  
2002-05-02 07:41:21 51°17.554 2°44.328 10.837612 0.768206 5.183763  
2002-05-02 07:41:25 51°17.554 2°44.327 10.837473 0.776846 5.246638  
2002-05-02 07:41:29 51°17.554 2°44.326 10.837658 0.755792 5.101574  
2002-05-02 07:41:36 51°17.554 2°44.324 10.837751 0.773867 5.238476  
2002-05-02 07:41:40 51°17.554 2°44.324 10.838029 0.766418 5.178938  
2002-05-02 07:41:46 51°17.554 2°44.322 10.838029 0.766418 5.178938  
2002-05-02 07:41:50 51°17.554 2°44.322 10.837612 0.800983 5.433623  
2002-05-02 07:41:56 51°17.554 2°44.32 10.838121 0.750827 5.055835  
2002-05-02 07:41:59 51°17.554 2°44.32 10.838121 0.765723 5.169603  
2002-05-02 07:42:06 51°17.554 2°44.318 10.838631 0.772477 5.23099  
2002-05-02 07:42:11 51°17.554 2°44.317 10.838908 0.774066 5.253037  
2002-05-02 07:42:16 51°17.554 2°44.316 10.838908 0.774066 5.253037  
2002-05-02 07:42:21 51°17.554 2°44.315 10.838816 0.728684 4.913148  
2002-05-02 07:42:26 51°17.554 2°44.314 10.838769 0.795322 5.404193  
2002-05-02 07:42:31 51°17.554 2°44.313 10.838955 0.756786 5.125142  
2002-05-02 07:42:35 51°17.554 2°44.312 10.839696 0.743975 5.029638  
2002-05-02 07:42:40 51°17.554 2°44.311 10.877145 0.752317 5.080355  
2002-05-02 07:42:46 51°17.554 2°44.309 10.877145 0.752317 5.080355  
2002-05-02 07:42:51 51°17.554 2°44.308 10.839742 0.762942 5.158222  
2002-05-02 07:42:56 51°17.554 2°44.307 10.839742 0.766617 5.186797  
2002-05-02 07:43:01 51°17.554 2°44.306 10.84002 0.749834 5.067153  
2002-05-02 07:43:06 51°17.554 2°44.305 10.840251 0.780721 5.302791  
2002-05-02 07:43:11 51°17.553 2°44.304 10.840344 0.756885 5.127004  
2002-05-02 07:43:16 51°17.553 2°44.303 10.840344 0.756885 5.127004  
2002-05-02 07:43:20 51°17.553 2°44.302 10.840575 0.7692 5.221194  
2002-05-02 07:43:26 51°17.553 2°44.3 10.840112 0.746756 5.054856  
2002-05-02 07:43:31 51°17.553 2°44.299 10.840575 0.788965 5.373083  
2002-05-02 07:43:36 51°17.553 2°44.298 10.840714 0.759368 5.166323  
2002-05-02 07:43:41 51°17.553 2°44.297 10.878718 0.774265 5.272486  
2002-05-02 07:43:46 51°17.552 2°44.295 10.878718 0.774265 5.272486  
2002-05-02 07:43:50 51°17.552 2°44.294 10.841131 0.729479 4.934685  
2002-05-02 07:43:56 51°17.552 2°44.293 10.84076 0.764135 5.188363  
2002-05-02 07:44:01 51°17.552 2°44.292 10.840992 0.762149 5.184592  
2002-05-02 07:44:06 51°17.551 2°44.29 10.841177 0.748941 5.090934  
2002-05-02 07:44:11 51°17.551 2°44.289 10.841409 0.742387 5.033231  
2002-05-02 07:44:16 51°17.551 2°44.288 10.841409 0.742387 5.033231  
2002-05-02 07:44:20 51°17.551 2°44.287 10.841918 0.766121 5.208253  
2002-05-02 07:44:26 51°17.55 2°44.285 10.842103 0.78678 5.372906  
2002-05-02 07:44:30 51°17.55 2°44.284 10.842983 0.768703 5.236834  
2002-05-02 07:44:35 51°17.55 2°44.283 10.843492 0.773967 5.278373  
2002-05-02 07:44:40 51°17.55 2°44.282 10.843724 0.756389 5.154384  
2002-05-02 07:44:46 51°17.55 2°44.28 10.843724 0.756389 5.154384  
2002-05-02 07:44:50 51°17.549 2°44.279 10.8434 0.750331 5.116141  
2002-05-02 07:44:56 51°17.549 2°44.277 10.844928 0.7693 5.25747  
2002-05-02 07:45:01 51°17.549 2°44.276 10.84803 0.763639 5.215682  
2002-05-02 07:45:06 51°17.548 2°44.274 10.851317 0.768406 5.256624  
2002-05-02 07:45:11 51°17.548 2°44.273 10.851687 0.780523 5.350638  
2002-05-02 07:45:16 51°17.548 2°44.271 10.851687 0.780523 5.350638  
2002-05-02 07:45:21 51°17.547 2°44.27 10.852844 0.736331 5.023323  
2002-05-02 07:45:26 51°17.547 2°44.269 10.853169 0.796614 5.475294  
2002-05-02 07:45:30 51°17.547 2°44.268 10.890656 0.762249 5.21888  
2002-05-02 07:45:35 51°17.547 2°44.266 10.888852 0.79721 5.477531  
2002-05-02 07:45:40 51°17.546 2°44.265 10.848585 0.791449 5.430356  
2002-05-02 07:45:46 51°17.546 2°44.263 10.848585 0.791449 5.430356  
2002-05-02 07:45:51 51°17.546 2°44.262 10.84752 0.745069 5.093962  
2002-05-02 07:45:56 51°17.545 2°44.26 10.847798 0.76354 5.234359  
2002-05-02 07:46:00 51°17.545 2°44.259 10.849326 0.745665 5.095939  
2002-05-02 07:46:06 51°17.545 2°44.257 10.850946 0.764036 5.233289  
2002-05-02 07:46:10 51°17.544 2°44.256 10.850345 0.829497 5.732915  
2002-05-02 07:46:16 51°17.544 2°44.254 10.850345 0.829497 5.732915  
2002-05-02 07:46:20 51°17.544 2°44.253 10.849882 0.769499 5.293333  
2002-05-02 07:46:26 51°17.543 2°44.251 10.847891 0.799992 5.524109  
2002-05-02 07:46:31 51°17.543 2°44.25 10.885196 0.821251 5.679325  
2002-05-02 07:46:36 51°17.543 2°44.248 10.849835 0.770293 5.298598  
2002-05-02 07:46:40 51°17.542 2°44.247 10.886538 0.755496 5.189668  
2002-05-02 07:46:46 51°17.542 2°44.244 10.886538 0.755496 5.189668  
2002-05-02 07:46:50 51°17.541 2°44.243 10.887371 0.750829 5.153244  
2002-05-02 07:46:55 51°17.541 2°44.241 10.849233 0.802078 5.548488  
2002-05-02 07:47:01 51°17.541 2°44.24 10.847798 0.771088 5.310675  
2002-05-02 07:47:06 51°17.54 2°44.238 10.848307 0.770393 5.314675  
2002-05-02 07:47:11 51°17.54 2°44.237 10.847381 0.799595 5.532035  
2002-05-02 07:47:15 51°17.54 2°44.235 10.847381 0.799595 5.532035  
2002-05-02 07:47:20 51°17.539 2°44.234 10.848539 0.771783 5.31933  
2002-05-02 07:47:26 51°17.539 2°44.232 10.848956 0.775955 5.354744  
2002-05-02 07:47:31 51°17.538 2°44.23 10.849465 0.778537 5.376415  
2002-05-02 07:47:36 51°17.538 2°44.229 10.849372 0.763739 5.262748  
2002-05-02 07:47:41 51°17.538 2°44.227 10.849187 0.748148 5.14895  
2002-05-02 07:47:46 51°17.537 2°44.226 10.849187 0.748148 5.14895  
2002-05-02 07:47:51 51°17.537 2°44.224 10.848446 0.750928 5.169282  
2002-05-02 07:47:56 51°17.536 2°44.223 10.848261 0.778537 5.377433  
2002-05-02 07:48:00 51°17.536 2°44.221 10.848539 0.765626 5.289311  
2002-05-02 07:48:06 51°17.535 2°44.219 10.850113 0.791748 5.492709  
2002-05-02 07:48:11 51°17.535 2°44.218 10.848817 0.741991 5.110193  
2002-05-02 07:48:16 51°17.535 2°44.216 10.848817 0.741991 5.110193  
2002-05-02 07:48:21 51°17.534 2°44.214 10.848169 0.770592 5.329872  
2002-05-02 07:48:26 51°17.534 2°44.213 10.886585 0.790854 5.480945  
2002-05-02 07:48:30 51°17.533 2°44.212 10.847243 0.756688 5.232328  
2002-05-02 07:48:36 51°17.533 2°44.21 10.845854 0.778935 5.40167  
2002-05-02 07:48:40 51°17.532 2°44.209 10.846131 0.787378 5.469532  
2002-05-02 07:48:45 51°17.532 2°44.207 10.846131 0.787378 5.469532  
2002-05-02 07:48:51 51°17.531 2°44.205 10.846456 0.785391 5.452643  
2002-05-02 07:48:56 51°17.531 2°44.204 10.845483 0.762349 5.278547  
2002-05-02 07:49:00 51°17.53 2°44.202 10.845344 0.765924 5.305011  
2002-05-02 07:49:06 51°17.53 2°44.2 10.845946 0.769599 5.32594  
2002-05-02 07:49:11 51°17.529 2°44.199 10.84752 0.764137 5.296869  
2002-05-02 07:49:16 51°17.529 2°44.197 10.84752 0.764137 5.296869  
2002-05-02 07:49:21 51°17.529 2°44.196 10.847428 0.787477 5.479462  
2002-05-02 07:49:26 51°17.528 2°44.194 10.847057 0.762846 5.296251  
2002-05-02 07:49:31 51°17.528 2°44.192 10.848169 0.839931 5.886211  
2002-05-02 07:49:36 51°17.527 2°44.191 10.850113 0.776055 5.397295  
2002-05-02 07:49:41 51°17.527 2°44.189 10.848169 0.746957 5.172968  
2002-05-02 07:49:46 51°17.527 2°44.188 10.848169 0.746957 5.172968  
2002-05-02 07:49:51 51°17.526 2°44.186 10.84803 0.74795 5.183408  
2002-05-02 07:49:56 51°17.526 2°44.184 10.848354 0.749837 5.199518  
2002-05-02 07:50:01 51°17.525 2°44.183 10.847381 0.749141 5.196134  
2002-05-02 07:50:06 51°17.525 2°44.181 10.885058 0.776055 5.397604  
2002-05-02 07:50:11 51°17.525 2°44.18 10.884549 0.747354 5.178189  
2002-05-02 07:50:16 51°17.524 2°44.178 10.884549 0.747354 5.178189  
2002-05-02 07:50:21 51°17.524 2°44.176 10.846965 0.734545 5.081614  
2002-05-02 07:50:25 51°17.524 2°44.175 10.846502 0.783007 5.45348  
2002-05-02 07:50:31 51°17.523 2°44.173 10.846085 0.75073 5.21134  
2002-05-02 07:50:36 51°17.523 2°44.171 10.847243 0.77387 5.39346  
2002-05-02 07:50:41 51°17.522 2°44.17 10.848307 0.768308 5.357521  
2002-05-02 07:50:46 51°17.522 2°44.168 10.848307 0.768308 5.357521  
2002-05-02 07:50:50 51°17.522 2°44.167 10.847011 0.74944 5.220797  
2002-05-02 07:50:55 51°17.521 2°44.165 10.847567 0.771785 5.386326  
2002-05-02 07:51:00 51°17.521 2°44.163 10.846641 0.756192 5.262889  
2002-05-02 07:51:06 51°17.521 2°44.162 10.846641 0.76374 5.326106  
2002-05-02 07:51:11 51°17.52 2°44.16 10.847057 0.7552 5.26577  
2002-05-02 07:51:15 51°17.52 2°44.158 10.847057 0.7552 5.26577  
2002-05-02 07:51:20 51°17.52 2°44.157 10.848539 0.755497 5.269315  
2002-05-02 07:51:26 51°17.519 2°44.155 10.847057 0.77387 5.414318  
2002-05-02 07:51:30 51°17.519 2°44.154 10.885752 0.757285 5.293067  
2002-05-02 07:51:36 51°17.518 2°44.152 10.848169 0.759172 5.310183  
2002-05-02 07:51:41 51°17.518 2°44.15 10.849095 0.752221 5.257936  
2002-05-02 07:51:46 51°17.517 2°44.148 10.849095 0.752221 5.257936  
2002-05-02 07:51:50 51°17.517 2°44.147 10.849095 0.75798 5.304308  
2002-05-02 07:51:55 51°17.517 2°44.146 10.848956 0.765727 5.365699  
2002-05-02 07:52:00 51°17.516 2°44.144 10.849465 0.784895 5.510091  
2002-05-02 07:52:06 51°17.516 2°44.141 10.850437 0.720447 5.021681  
2002-05-02 07:52:11 51°17.515 2°44.137 10.851456 0.770295 5.397454  
2002-05-02 07:52:16 51°17.514 2°44.132 10.851456 0.770295 5.397454  
2002-05-02 07:52:20 51°17.514 2°44.128 10.853122 0.759768 5.322555  
2002-05-02 07:52:25 51°17.513 2°44.121 10.851872 0.803073 5.65343  
2002-05-02 07:52:31 51°17.513 2°44.112 10.851085 0.750135 5.253644  
2002-05-02 07:52:35 51°17.514 2°44.105 10.849789 0.769402 5.406591  
2002-05-02 07:52:41 51°17.515 2°44.094 10.849557 0.774368 5.452071  
2002-05-02 07:52:46 51°17.518 2°44.084 10.849557 0.774368 5.452071  
2002-05-02 07:52:51 51°17.522 2°44.073 10.850113 0.749142 5.250242  
2002-05-02 07:52:56 51°17.526 2°44.064 10.850113 0.789067 5.553115  
2002-05-02 07:53:00 51°17.531 2°44.057 10.848678 0.750731 5.265956  
2002-05-02 07:53:06 51°17.538 2°44.048 10.848956 0.780525 5.494674  
2002-05-02 07:53:11 51°17.546 2°44.042 10.888019 0.751129 5.275481  
2002-05-02 07:53:16 51°17.554 2°44.038 10.888019 0.751129 5.275481  
2002-05-02 07:53:21 51°17.562 2°44.035 10.850113 0.786585 5.557383  
2002-05-02 07:53:26 51°17.57 2°44.035 10.848956 0.810524 5.751164  
2002-05-02 07:53:31 51°17.578 2°44.036 10.848678 0.781618 5.52607  
2002-05-02 07:53:35 51°17.585 2°44.039 10.847752 0.795524 5.636843  
2002-05-02 07:53:41 51°17.594 2°44.045 10.849372 0.811121 5.758514  
2002-05-02 07:53:45 51°17.6 2°44.051 10.849372 0.811121 5.758514  
2002-05-02 07:53:51 51°17.607 2°44.061 10.850113 0.800094 5.675377  
2002-05-02 07:53:56 51°17.612 2°44.072 10.849511 0.80824 5.734762  
2002-05-02 07:54:01 51°17.616 2°44.084 10.847937 0.810326 5.758748  
2002-05-02 07:54:06 51°17.619 2°44.096 10.846131 0.82652 5.89178  
2002-05-02 07:54:10 51°17.62 2°44.106 10.845159 0.816386 5.811489  
2002-05-02 07:54:16 51°17.62 2°44.122 10.845159 0.816386 5.811489  
2002-05-02 07:54:20 51°17.619 2°44.132 10.845807 0.785194 5.569705  
2002-05-02 07:54:26 51°17.615 2°44.147 10.845298 0.799399 5.672849  
2002-05-02 07:54:31 51°17.611 2°44.158 10.84377 0.810127 5.751838  
2002-05-02 07:54:36 51°17.606 2°44.169 10.880384 0.88485 6.367553  
2002-05-02 07:54:40 51°17.601 2°44.178 10.879227 0.827712 5.929948  
2002-05-02 07:54:46 51°17.594 2°44.192 10.879227 0.827712 5.929948  
2002-05-02 07:54:51 51°17.588 2°44.204 10.841825 0.786387 5.60619  
2002-05-02 07:54:56 51°17.582 2°44.217 10.879875 0.759174 5.389137  
2002-05-02 07:55:01 51°17.576 2°44.231 10.841779 0.823043 5.88151  
2002-05-02 07:55:06 51°17.571 2°44.245 10.842057 0.752718 5.330164  
2002-05-02 07:55:11 51°17.567 2°44.26 10.842288 0.807843 5.751485  
2002-05-02 07:55:16 51°17.562 2°44.276 10.842288 0.807843 5.751485  
2002-05-02 07:55:20 51°17.559 2°44.289 10.84289 0.77556 5.496706  
2002-05-02 07:55:26 51°17.555 2°44.309 10.843724 0.746561 5.270414  
2002-05-02 07:55:31 51°17.551 2°44.325 10.842751 0.811816 5.765842  
2002-05-02 07:55:36 51°17.548 2°44.341 10.842705 0.765827 5.432056  
2002-05-02 07:55:40 51°17.547 2°44.352 10.842335 0.826421 5.91337  
2002-05-02 07:55:46 51°17.544 2°44.368 10.842335 0.826421 5.91337  
2002-05-02 07:55:51 51°17.543 2°44.38 10.84076 0.739809 5.241817  
2002-05-02 07:55:55 51°17.542 2°44.389 10.839557 0.790956 5.646274  
2002-05-02 07:56:00 51°17.542 2°44.4 10.839973 0.782414 5.576887  
2002-05-02 07:56:06 51°17.542 2°44.412 10.87645 0.727994 5.152796  
2002-05-02 07:56:11 51°17.542 2°44.421 10.837288 0.778242 5.549889  
2002-05-02 07:56:16 51°17.542 2°44.429 10.837288 0.778242 5.549889  
2002-05-02 07:56:21 51°17.543 2°44.435 10.836037 0.760564 5.405029  
2002-05-02 07:56:26 51°17.544 2°44.44 10.840622 0.755996 5.364411  
2002-05-02 07:56:31 51°17.545 2°44.443 10.839927 0.813704 5.816714  
2002-05-02 07:56:36 51°17.545 2°44.446 10.838908 0.734348 5.194624  
2002-05-02 07:56:41 51°17.546 2°44.447 10.837519 0.792545 5.658901  
2002-05-02 07:56:46 51°17.546 2°44.447 10.837519 0.792545 5.658901  
2002-05-02 07:56:51 51°17.547 2°44.448 10.837102 0.770098 5.481861  
2002-05-02 07:56:56 51°17.547 2°44.448 10.836593 0.7554 5.368089  
2002-05-02 07:57:01 51°17.547 2°44.449 10.836176 0.774468 5.517422  
2002-05-02 07:57:05 51°17.548 2°44.449 10.873396 0.785791 5.612888  
2002-05-02 07:57:11 51°17.549 2°44.45 10.835111 0.807346 5.782477  
2002-05-02 07:57:16 51°17.549 2°44.45 10.835111 0.807346 5.782477  
2002-05-02 07:57:21 51°17.55 2°44.45 10.834602 0.766324 5.464965  
2002-05-02 07:57:26 51°17.55 2°44.45 10.834417 0.772979 5.524839  
2002-05-02 07:57:31 51°17.551 2°44.45 10.833352 0.823838 5.923118  
2002-05-02 07:57:36 51°17.552 2°44.45 10.871128 0.781719 5.583869  
2002-05-02 07:57:40 51°17.552 2°44.45 10.832425 0.773475 5.528539  
2002-05-02 07:57:46 51°17.553 2°44.45 10.832425 0.773475 5.528539  
2002-05-02 07:57:51 51°17.554 2°44.45 10.832564 0.777845 5.561193  
2002-05-02 07:57:55 51°17.554 2°44.45 10.832842 0.762054 5.440336  
2002-05-02 07:58:01 51°17.555 2°44.45 10.833491 0.77278 5.521462  
2002-05-02 07:58:06 51°17.556 2°44.45 10.833352 0.806751 5.787256  
2002-05-02 07:58:11 51°17.556 2°44.449 10.831916 0.78599 5.628614  
2002-05-02 07:58:15 51°17.557 2°44.449 10.831916 0.78599 5.628614  
2002-05-02 07:58:20 51°17.557 2°44.449 10.832935 0.775958 5.555052  
2002-05-02 07:58:26 51°17.558 2°44.448 10.832935 0.807446 5.801215  
2002-05-02 07:58:30 51°17.559 2°44.448 10.833676 0.805062 5.781448  
2002-05-02 07:58:36 51°17.559 2°44.448 10.832564 0.783209 5.619459  
2002-05-02 07:58:41 51°17.56 2°44.448 10.832425 0.746562 5.328083  
2002-05-02 07:58:46 51°17.561 2°44.447 10.832425 0.746562 5.328083  
2002-05-02 07:58:51 51°17.561 2°44.447 10.832657 0.761558 5.445674  
2002-05-02 07:58:56 51°17.562 2°44.447 10.832564 0.794234 5.701719  
2002-05-02 07:59:00 51°17.562 2°44.446 10.832286 0.759174 5.434163  
2002-05-02 07:59:05 51°17.563 2°44.445 10.831777 0.815791 5.870516  
2002-05-02 07:59:11 51°17.564 2°44.445 10.832286 0.776654 5.572191  
2002-05-02 07:59:16 51°17.565 2°44.445 10.832286 0.776654 5.572191  
2002-05-02 07:59:21 51°17.565 2°44.444 10.832425 0.825527 5.954193  
2002-05-02 07:59:26 51°17.566 2°44.444 10.832333 0.762154 5.459971  
2002-05-02 07:59:31 51°17.566 2°44.443 10.832564 0.787083 5.654345